This is the latest recevied weather packets stored in our database for station/object DJ6OI-23. If no packets are shown the sender has not sent any weather packets the latest 10 day(s).
| Time | Temp. | Humidity | Pressure | Rain* | Wind** | Luminosity | Snow |
|---|---|---|---|---|---|---|---|
| 1777264080 | 0.56° C | 84% | 1003.9 hPa | 0 mm | - | - | - |
| 1777262210 | 0° C | 84% | 1003.8 hPa | 0 mm | - | - | - |
| 1777261275 | 0.56° C | 84% | 1003.8 hPa | 0 mm | - | - | - |
| 1777260340 | 0.56° C | 84% | 1003.6 hPa | 0 mm | - | - | - |
| 1777259406 | 0.56° C | 83% | 1003.6 hPa | 0 mm | - | - | - |
| 1777258471 | 1.11° C | 82% | 1003.7 hPa | 0 mm | - | - | - |
| 1777257536 | 1.11° C | 82% | 1003.6 hPa | 0 mm | - | - | - |
| 1777256601 | 1.11° C | 81% | 1003.7 hPa | 0 mm | - | - | - |
| 1777255666 | 1.67° C | 81% | 1003.6 hPa | 0 mm | - | - | - |
| 1777254731 | 1.67° C | 78% | 1003.6 hPa | 0 mm | - | - | - |
| 1777253796 | 1.67° C | 78% | 1003.7 hPa | 0 mm | - | - | - |
| 1777252861 | 2.22° C | 78% | 1003.8 hPa | 0 mm | - | - | - |
| 1777251926 | 2.22° C | 76% | 1003.9 hPa | 0 mm | - | - | - |
| 1777250991 | 2.22° C | 75% | 1003.9 hPa | 0 mm | - | - | - |
| 1777250057 | 2.78° C | 75% | 1003.9 hPa | 0 mm | - | - | - |
| 1777249122 | 2.78° C | 74% | 1004.1 hPa | 0 mm | - | - | - |
| 1777248187 | 2.78° C | 72% | 1004.1 hPa | 0 mm | - | - | - |
| 1777247252 | 3.33° C | 72% | 1004.2 hPa | 0 mm | - | - | - |
| 1777246317 | 3.33° C | 71% | 1004.2 hPa | 0 mm | - | - | - |
| 1777245382 | 3.89° C | 71% | 1004.1 hPa | 0 mm | - | - | - |
| 1777244447 | 3.89° C | 70% | 1004.1 hPa | 0 mm | - | - | - |
| 1777243512 | 4.44° C | 69% | 1004 hPa | 0 mm | - | - | - |
| 1777242577 | 4.44° C | 68% | 1003.9 hPa | 0 mm | - | - | - |
| 1777241642 | 5° C | 66% | 1003.7 hPa | 0 mm | - | - | - |
| 1777240707 | 5° C | 64% | 1003.8 hPa | 0 mm | - | - | - |
* Rain latest hour (hover to see other rain measurements)
** Current wind speed in m/s (hover to see current wind gust speed)